Theta_e
308 309 309 309 310 310 310 310 310 310 311 313 313 313 312 312 312 313 315 316 315 315 318 319 320 320 319 322 323 323 329 330 330 330 335 343 345 345 345 346 346 345 344 343 348
308 308 308 309 309 310 310 310 310 310 310 313 314 313 312 312 313 316 315 316 314 318 320 320 319 319 321 323 323 326 329 330 330 331 335 341 341 345 342 345 346 345 350 346 348
309 308 308 308 308 309 310 310 310 311 310 313 314 314 313 313 316 321 322 316 315 321 321 322 319 320 322 322 323 325 328 330 328 329 332 338 340 344 342 345 343 343 349 348 347
308 308 308 308 308 309 309 310 311 311 311 311 314 314 313 314 322 324 322 317 318 321 322 320 320 321 322 322 323 324 325 328 326 328 330 335 339 344 342 342 343 342 347 347 345
307 307 308 308 308 308 309 310 311 311 312 310 315 314 313 319 318 321 323 317 317 321 321 319 322 323 323 323 323 323 324 326 325 325 326 329 336 342 343 341 343 343 345 348 344
307 307 307 308 308 308 309 310 310 311 312 310 315 314 316 318 316 318 322 319 319 321 320 321 324 324 324 324 324 324 325 326 326 326 325 329 333 337 339 341 342 343 345 348 346
307 307 308 308 308 308 308 309 310 311 313 310 314 317 319 320 315 318 322 319 322 320 319 323 324 324 324 325 324 325 326 326 326 325 326 329 334 338 338 338 340 344 344 348 348
307 308 308 308 308 308 308 309 312 313 313 310 314 317 320 319 317 318 321 320 319 320 322 322 323 324 324 325 325 326 326 327 327 330 330 329 329 332 335 338 338 341 345 348 349
308 308 308 309 309 309 308 310 316 312 310 310 315 318 320 318 318 318 319 322 319 319 321 321 323 324 324 325 325 326 325 327 327 329 332 332 330 333 333 337 338 340 343 347 349
309 309 309 309 309 309 309 316 319 316 311 312 315 319 319 320 320 319 320 322 320 321 322 323 324 325 325 325 324 325 325 327 327 328 331 332 331 332 333 340 340 339 341 343 347
308 309 309 309 309 309 313 319 320 321 320 319 317 317 318 320 320 320 322 322 321 322 325 324 325 325 325 325 325 325 326 326 327 327 327 328 328 328 328 331 333 335 338 342 345
308 309 309 310 309 309 316 317 315 313 318 320 319 318 317 320 321 321 322 323 322 325 325 326 325 325 325 324 323 323 325 326 327 327 328 328 328 328 329 331 333 335 338 341 346
307 308 309 309 309 311 315 313 314 315 320 321 320 320 320 318 320 322 322 323 324 325 326 326 325 325 324 324 324 324 325 325 326 327 328 328 328 329 330 336 339 339 340 341 341
307 307 308 309 309 308 312 314 314 317 323 323 320 320 320 318 320 320 322 323 324 325 325 325 325 324 324 325 325 326 326 325 326 327 327 328 328 330 331 334 337 339 339 337 336
307 307 307 307 307 308 306 311 314 316 323 322 320 319 321 319 320 320 322 323 325 324 325 325 324 324 324 325 326 327 326 326 327 328 328 328 327 331 330 332 335 338 336 333 331
307 306 307 306 307 307 306 307 317 323 322 323 320 321 322 321 321 322 322 323 323 325 325 324 324 325 324 325 326 326 328 328 328 329 330 327 328 327 331 332 335 337 335 332 329
308 307 305 306 307 306 306 312 321 321 319 322 323 321 322 322 322 324 323 325 325 326 326 324 324 325 325 326 326 326 330 330 329 329 328 329 327 332 334 334 337 338 335 331 329
308 308 307 306 307 306 306 318 320 320 319 322 322 321 322 322 322 324 324 325 325 325 325 325 324 324 325 326 327 327 329 329 332 329 328 328 327 332 334 336 337 335 333 330 329
307 307 307 306 306 306 310 318 319 318 317 321 321 323 324 322 322 323 325 325 325 325 325 326 325 324 324 326 327 328 328 329 330 329 329 327 331 333 335 337 336 336 333 331 328
303 305 306 305 304 304 311 315 318 317 320 320 320 324 327 324 322 323 324 324 325 325 324 326 327 324 324 324 325 328 328 329 330 332 332 328 329 330 336 337 336 336 335 332 328
302 304 307 306 312 307 312 314 316 316 318 320 320 322 324 325 323 323 324 324 325 325 325 326 328 326 325 326 326 326 328 328 332 332 332 332 330 331 332 334 335 334 335 332 329
301 308 306 309 314 311 312 313 314 315 315 318 318 319 322 324 327 324 324 324 323 325 326 326 328 329 326 327 328 327 328 329 330 331 330 331 330 331 333 333 333 333 334 332 329
304 304 306 310 316 315 313 313 314 315 316 315 315 316 320 324 326 326 324 325 323 326 326 327 328 329 328 328 328 328 328 328 331 333 332 333 332 334 333 333 332 333 333 331 329
302 308 306 309 313 319 315 315 314 313 314 314 315 315 319 323 325 327 328 326 325 324 323 327 328 329 329 328 328 329 329 329 331 331 330 331 330 334 335 334 333 333 333 330 328
302 305 310 316 313 316 317 315 315 315 315 316 317 316 316 322 325 326 328 328 327 324 324 329 330 329 327 327 327 329 329 329 331 330 332 330 331 331 332 333 333 333 333 330 327
302 305 308 310 315 316 315 319 318 315 318 318 320 318 317 319 326 326 328 330 329 328 328 331 332 331 328 328 327 328 328 329 329 330 330 331 331 331 330 330 329 332 333 329 327
302 303 304 307 312 317 316 317 319 319 319 318 320 321 323 318 322 325 328 329 330 331 331 331 335 333 331 329 329 330 330 330 330 329 329 331 330 330 328 330 330 331 332 330 328
Wind_Speed
14 13 13 13 13 12 12 11 10 9 8 6 6 6 7 8 9 11 11 8 12 14 12 12 10 8 8 8 6 4 7 8 5 7 9 15 12 12 7 8 9 9 3 5 17
14 14 13 13 13 13 12 12 11 10 8 7 6 6 6 7 10 14 10 9 15 16 13 12 11 11 12 10 7 9 9 4 5 5 3 15 14 15 10 12 11 13 5 13 18
15 15 15 15 14 14 13 13 12 11 9 7 6 6 5 6 7 4 6 11 18 17 10 10 10 12 11 10 10 8 10 7 6 2 1 11 13 16 14 12 14 16 12 17 19
16 16 16 16 15 15 14 14 13 11 9 7 6 6 5 3 2 5 5 14 20 16 10 9 12 12 11 10 10 9 9 6 1 3 3 6 12 15 18 6 7 9 13 18 20
17 17 16 16 16 16 15 14 13 12 9 7 6 6 4 6 7 6 6 16 19 16 12 12 13 11 11 10 10 11 7 7 9 8 9 8 13 13 20 16 3 12 15 18 20
18 18 18 17 17 16 16 14 13 11 9 7 6 6 4 10 8 7 7 16 16 14 12 12 8 6 5 8 12 6 7 9 7 11 8 12 12 15 16 18 15 14 17 20 21
19 19 18 18 18 17 16 15 13 10 7 7 7 6 8 11 8 7 10 14 14 11 14 10 5 7 4 8 6 6 9 10 7 5 6 11 9 16 13 17 19 16 17 20 22
20 20 20 19 18 17 16 13 11 8 6 7 7 5 8 9 14 11 12 12 13 11 10 8 4 4 7 1 7 10 9 13 9 9 4 13 15 18 17 12 18 18 18 20 23
20 20 20 19 19 17 15 11 8 5 5 6 5 5 6 6 10 12 14 12 13 12 7 8 3 5 6 11 10 10 13 13 9 6 8 12 8 9 12 15 17 19 21 21 22
20 20 20 19 18 16 12 9 4 4 5 6 9 6 10 7 7 11 14 13 15 15 9 8 8 9 10 10 11 13 14 8 9 9 9 14 12 8 9 13 18 20 20 22 23
21 20 19 19 17 13 7 4 4 4 8 10 3 5 3 4 6 10 17 16 14 18 14 15 10 12 13 9 8 8 8 9 9 4 6 10 11 11 6 13 17 20 19 17 15
21 21 19 17 16 6 3 1 3 5 11 16 21 18 9 4 7 13 18 16 19 18 18 8 14 9 2 6 8 10 12 12 8 3 7 8 12 4 2 6 9 13 13 13 12
21 21 19 15 12 2 1 1 6 9 8 8 16 19 17 17 10 18 23 21 19 19 16 16 2 4 11 10 11 12 13 12 12 9 7 6 12 10 5 4 6 5 2 2 3
20 20 19 15 4 8 1 4 9 4 5 8 7 7 16 14 11 16 24 21 11 19 16 14 11 6 11 12 12 12 13 12 11 10 11 8 8 11 9 5 3 4 4 4 6
19 19 18 16 12 5 6 6 7 1 5 7 7 6 9 20 9 23 22 18 16 14 12 12 11 16 13 13 10 1 2 11 14 14 9 12 8 8 9 9 5 7 8 9 10
20 18 18 16 13 5 5 4 1 6 7 5 7 10 12 19 8 16 20 17 21 15 14 16 5 8 17 9 7 3 5 8 9 10 11 12 5 8 6 2 3 9 11 10 10
20 18 17 17 6 7 4 3 6 7 4 7 5 9 14 13 14 14 21 21 14 16 17 15 14 10 5 12 8 10 10 8 9 10 10 6 6 5 7 4 2 4 6 8 8
20 19 18 16 15 10 6 7 12 4 9 1 2 7 11 11 19 16 20 21 23 18 11 14 14 20 13 17 12 15 13 7 9 7 7 7 6 6 5 6 4 4 4 5 6
20 18 18 13 13 13 12 13 7 13 2 4 6 8 12 12 8 18 18 21 22 19 12 13 13 5 14 17 17 8 11 6 8 4 8 7 7 5 8 7 7 7 5 6 8
20 16 10 14 12 15 11 19 16 3 4 5 10 5 11 15 13 17 18 19 20 23 20 8 8 10 10 10 6 12 10 7 8 10 12 9 5 5 13 12 10 10 10 10 9
13 7 9 7 9 12 13 20 23 12 7 5 6 7 8 8 16 18 14 5 20 21 24 11 7 10 11 14 15 9 12 8 6 5 8 10 5 5 8 11 12 13 14 14 13
4 5 7 11 11 12 15 18 16 14 15 9 6 8 9 5 12 14 19 18 18 22 25 18 9 8 15 7 4 6 13 16 11 12 7 9 9 2 8 11 11 12 13 13 14
6 9 4 7 7 12 13 18 16 13 13 13 11 9 2 7 6 13 14 7 13 18 16 16 10 12 11 8 7 10 11 9 6 5 8 9 5 7 8 9 10 10 12 13 14
6 4 9 14 14 10 14 16 20 17 15 14 7 13 10 11 10 7 11 7 11 18 5 18 13 17 13 13 15 15 12 12 13 9 11 11 6 10 9 9 10 9 12 13 14
6 3 5 5 13 13 9 6 17 16 16 12 15 19 15 11 13 12 11 9 8 8 10 13 13 17 18 12 10 13 16 15 14 12 8 4 8 4 7 8 11 11 13 15 15
7 5 5 14 9 10 14 12 13 18 9 13 12 14 19 16 13 11 13 12 10 11 12 8 8 12 12 10 12 12 13 14 13 9 7 4 6 3 1 4 7 11 14 16 16
5 7 5 5 8 8 13 17 11 9 11 15 10 5 11 19 21 7 10 5 5 13 11 12 9 11 11 9 10 12 13 15 12 11 9 9 2 4 3 4 2 7 13 14 14
Wind_Direction
7 5 2 356 350 349 345 342 336 331 320 307 289 279 276 276 277 271 260 231 203 188 182 183 194 201 193 212 222 243 241 212 145 199 128 159 176 186 179 164 180 185 121 145 170
360 358 354 350 346 343 340 338 333 329 315 307 292 278 280 286 287 265 244 208 195 184 171 180 192 189 198 207 208 237 252 126 99 87 137 176 198 177 185 183 191 180 161 157 165
353 350 347 345 341 339 335 333 330 327 313 300 290 278 278 297 298 203 197 191 181 176 191 201 196 192 210 207 203 194 247 125 159 87 16 175 202 183 209 195 202 192 169 171 172
348 346 342 339 336 333 331 326 325 323 309 286 286 278 270 273 264 173 195 184 179 180 181 186 185 198 213 205 197 233 236 212 116 185 218 192 200 199 212 189 221 197 181 180 183
345 343 340 336 331 328 325 320 317 315 305 276 274 267 267 249 245 207 189 177 181 182 191 190 191 207 212 207 196 232 222 225 246 253 250 244 217 210 214 218 222 190 188 190 193
343 341 339 335 329 324 321 314 311 308 298 266 259 254 250 250 232 201 170 180 179 182 194 187 204 212 213 201 220 184 240 245 257 260 238 222 211 211 224 218 218 208 200 200 200
339 339 337 335 329 324 318 313 308 301 287 251 245 247 252 248 225 191 167 176 186 185 180 180 178 207 174 188 223 236 246 210 220 217 188 206 201 222 211 213 214 214 213 212 208
336 337 336 334 330 326 318 314 309 293 270 242 233 243 253 238 218 194 174 182 188 183 183 194 193 236 226 161 209 234 226 211 147 179 152 202 202 214 207 206 221 218 215 216 217
333 334 334 334 330 328 322 315 308 279 243 227 232 222 251 239 216 204 190 183 176 179 174 181 198 225 195 223 214 204 212 223 144 203 156 218 249 107 195 212 227 221 219 219 222
330 330 332 333 330 330 326 317 302 275 239 235 225 245 233 188 184 186 181 181 172 174 181 204 210 213 220 221 222 208 234 194 191 161 199 195 250 171 190 213 225 227 227 227 225
326 326 330 332 331 334 335 335 286 238 225 226 222 236 162 180 182 178 173 170 181 183 201 201 218 217 214 224 313 287 254 232 191 128 248 237 237 242 209 226 233 233 233 234 246
326 324 328 332 332 339 359 56 45 303 294 251 241 238 220 165 180 179 177 181 190 197 208 182 226 227 220 213 221 227 231 224 215 179 234 224 238 182 266 265 278 276 270 252 235
327 325 325 333 332 348 116 109 341 340 261 259 226 226 216 214 212 192 185 197 198 209 199 227 99 233 207 198 218 225 230 229 237 175 229 245 238 175 124 102 97 73 59 33 273
327 326 326 334 353 340 226 270 336 340 272 169 202 218 190 187 221 201 193 193 206 213 212 237 196 184 203 223 215 226 212 234 223 222 236 190 267 163 139 133 111 82 66 34 18
323 324 322 323 313 325 256 271 325 313 270 116 150 166 179 183 145 191 190 203 212 207 197 212 210 213 220 222 201 98 210 222 217 225 258 196 247 127 156 160 119 77 62 52 51
317 317 314 312 309 292 266 240 236 229 239 164 151 179 168 207 204 151 183 207 219 210 219 242 189 219 215 165 210 127 196 188 211 218 225 228 244 237 149 112 121 82 68 61 62
309 307 302 296 281 270 254 204 217 237 102 165 193 186 200 182 197 184 184 191 191 198 209 216 211 196 204 204 190 208 201 194 208 206 239 135 222 54 113 133 46 52 52 47 61
305 300 294 282 274 256 212 213 230 214 219 45 236 196 199 189 207 194 190 198 210 205 203 206 206 209 193 228 207 205 220 251 240 209 222 146 233 132 130 138 128 115 102 90 90
308 303 295 278 253 218 204 213 221 230 262 239 242 230 203 201 218 195 206 208 200 204 224 203 229 170 211 207 227 180 221 287 258 265 280 256 127 171 167 172 177 172 159 136 129
316 309 273 261 230 192 218 228 232 228 269 229 236 220 222 195 203 196 195 211 206 204 215 201 213 198 174 195 202 255 179 195 214 243 241 231 240 274 185 192 185 182 179 162 157
318 291 232 235 176 187 223 219 227 227 242 239 244 249 241 226 208 198 197 179 199 197 207 191 251 159 172 206 191 185 213 230 289 309 260 267 257 93 175 180 176 176 172 171 166
299 246 271 180 214 206 228 221 227 236 218 240 263 261 257 234 225 230 218 213 199 198 203 209 216 212 200 104 329 274 238 213 233 218 235 271 278 137 148 163 172 169 165 165 166
285 268 260 189 225 215 224 225 226 223 213 219 228 234 245 256 240 224 220 165 185 176 190 185 213 208 221 198 198 228 204 234 246 272 235 237 237 145 155 169 184 184 168 169 168
281 260 198 214 247 286 212 217 218 220 234 219 241 235 243 243 230 212 196 175 186 205 170 182 216 219 220 218 206 203 211 214 211 227 235 228 246 162 191 201 199 201 181 180 178
246 240 315 205 222 226 246 221 220 215 219 216 228 238 233 236 223 218 187 158 172 170 185 189 211 217 229 254 214 212 199 197 210 238 259 275 217 147 187 207 214 204 191 184 183
284 304 317 278 274 236 222 232 230 216 210 213 230 220 224 232 237 203 195 189 181 179 178 192 205 207 210 230 224 220 211 204 215 206 211 207 235 27 31 275 247 206 194 195 191
277 289 279 277 232 237 225 226 225 219 220 247 218 248 245 223 232 279 301 225 181 176 181 182 167 189 198 206 196 213 197 196 186 199 228 222 314 111 227 265 270 219 204 202 193